[[{"header":{"parameterUnit":"m.s-1","parameterCategory":2,"la1":30.2991,"la2":30.254,"lo1":-89.0895,"lo2":-89.0444,"dy":0.0017,"dx":0.0017,"nx":28,"ny":28,"refTime":"2025-08-08T03:00:00:Z","depth":"0","parameterNumber":2,"parameterNumberName":"U-component_of_CURRENTS"},"data":[0,0,0,0,0,0,0,0,0,0,0,0,0,0,0,0,0,0,0,0,0,0,0,0,0,0,0,0,0,0,0,0,0,0,0,0,0,0,0,0,0,0,0,0,0,0,0,0,0,0,0,0,0,0,0,0,0,0,-0.2506,-0.2507,0,-0.2528,-0.2528,-0.2528,-0.2499,-0.2498,-0.2497,-0.2496,-0.2458,-0.2458,-0.2457,0,0,0,0,0,0,0,0,0,0,0,0,0,-0.2434,-0.2436,-0.2506,-0.2507,-0.2507,-0.2528,-0.2528,-0.2528,-0.2499,-0.2498,-0.2497,-0.2496,-0.2458,-0.2458,-0.2457,0,0,0,0,0,0,0,0,0,0,0,0,0,-0.2459,-0.2436,-0.2506,-0.2497,-0.2497,-0.2528,-0.2528,-0.2528,-0.2499,-0.2498,-0.2497,-0.2495,-0.2458,-0.2458,-0.2457,-0.2479,0,0,-0.2456,-0.2456,0,0,0,0,0,0,0,0,-0.2458,-0.2462,-0.2498,-0.2498,-0.2498,-0.2512,-0.2489,-0.251,-0.2499,-0.2495,-0.2496,-0.2495,-0.2473,-0.2471,-0.2475,-0.2477,-0.2476,-0.2456,-0.2456,-0.2456,-0.2456,0,0,0,0,0,0,0,-0.2456,-0.2461,-0.2512,-0.2499,-0.2499,-0.249,-0.2492,-0.2492,-0.2487,-0.2496,-0.2494,-0.2501,-0.2472,-0.2476,-0.2474,-0.2475,-0.2456,-0.2456,-0.2455,-0.2455,-0.25,-0.2502,0,0,0,0,0,0,-0.2461,-0.2459,-0.2512,-0.2513,-0.2477,-0.2493,-0.2495,-0.2506,-0.2489,-0.2486,-0.2502,-0.25,-0.2477,-0.2474,-0.2472,-0.251,-0.2456,-0.2455,-0.2455,-0.2499,-0.2501,-0.2502,0,0,0,0,0,0,-0.2459,-0.2466,-0.2511,-0.2488,-0.2494,-0.2496,-0.2508,-0.2507,-0.2506,-0.2495,-0.249,-0.2501,-0.2476,-0.2473,-0.2477,-0.2507,-0.2455,-0.2455,-0.2497,-0.2499,-0.2501,-0.2577,0,0,0,0,0,0,-0.2457,-0.2465,-0.247,-0.2489,-0.2495,-0.2533,-0.251,-0.2509,-0.2514,-0.251,-0.2493,-0.2489,-0.2475,-0.2477,-0.2476,-0.2506,-0.2454,-0.2495,-0.2498,-0.2501,-0.2572,-0.2581,-0.2589,0,0,0,0,0,-0.2455,-0.2469,-0.2471,-0.2477,-0.2504,-0.2534,-0.2537,-0.2532,-0.2515,-0.2523,-0.2511,-0.2489,-0.2494,-0.2478,-0.2476,-0.2507,-0.2494,-0.2497,-0.25,-0.2569,-0.2579,-0.2588,0,0,0,0,0,0,-0.2438,-0.2468,-0.247,-0.2491,-0.2514,-0.253,-0.2535,-0.2535,-0.2533,-0.2523,-0.2504,-0.25,-0.2518,-0.2502,-0.2485,-0.2528,-0.2492,-0.2495,-0.2544,-0.2554,-0.2562,-0.2563,-0.2454,0,0,0,0,0,-0.244,-0.2455,-0.2486,-0.2501,-0.2513,-0.2524,-0.2533,-0.2535,-0.254,-0.2537,-0.2528,-0.2522,-0.2533,-0.2533,-0.2534,-0.2555,-0.2537,-0.2574,-0.2582,-0.2589,-0.259,-0.2605,-0.2615,-0.2513,-0.2513,-0.2513,0,0,-0.2435,-0.2454,-0.2461,-0.2498,-0.2509,-0.2542,-0.2525,-0.2544,-0.2571,-0.2534,-0.2554,-0.2548,-0.2545,-0.2571,-0.2578,-0.2559,-0.2607,-0.2593,-0.26,-0.2596,-0.261,-0.262,-0.2628,-0.2515,-0.2514,-0.2514,0,0,-0.244,-0.2453,-0.2471,-0.2498,-0.2528,-0.2546,-0.2554,-0.2577,-0.2584,-0.261,-0.2596,-0.2611,-0.2614,-0.2629,-0.2635,-0.2689,-0.265,-0.2685,-0.2727,-0.2744,-0.2752,-0.2759,-0.274,-0.2745,-0.269,-0.269,-0.269,0,-0.2431,-0.2464,-0.248,-0.2513,-0.2537,-0.2551,-0.2585,-0.2607,-0.2628,-0.2642,-0.2621,-0.2653,-0.2649,-0.2697,-0.2715,-0.271,-0.2692,-0.2691,-0.2754,-0.2761,-0.2767,-0.2746,-0.275,-0.2694,-0.2693,-0.2693,-0.2693,0,-0.2455,-0.2486,-0.25,-0.2549,-0.2579,-0.2609,-0.2651,-0.2677,-0.2684,-0.2703,-0.2742,-0.2743,-0.2759,-0.2771,-0.2757,-0.2807,-0.2771,-0.2763,-0.2729,-0.2782,-0.2756,-0.2759,-0.27,-0.2698,-0.2697,-0.2696,0,0,-0.2418,-0.2502,-0.2504,-0.2536,-0.2602,-0.2627,-0.2687,-0.2743,-0.2773,-0.2797,-0.2833,-0.2868,-0.2856,-0.2863,-0.2857,-0.2873,-0.2901,-0.2833,-0.2832,-0.2812,-0.2905,-0.2822,-0.2816,-0.29,-0.2901,-0.2902,-0.2866,0,-0.2428,-0.2491,-0.2537,-0.2599,-0.2635,-0.2686,-0.2742,-0.2794,-0.2825,-0.2862,-0.2885,-0.2908,-0.2897,-0.2897,-0.2921,-0.2902,-0.2914,-0.2909,-0.2858,-0.2856,-0.2775,-0.282,-0.2706,-0.266,-0.2869,-0.287,-0.287,0,-0.2432,-0.2476,-0.2538,-0.2629,-0.2649,-0.2691,-0.2771,-0.2821,-0.2891,-0.2913,-0.295,-0.2956,-0.2991,-0.2965,-0.2978,-0.2969,-0.2943,-0.2928,-0.2927,-0.2824,-0.2779,-0.2643,-0.2657,-0.2641,-0.2874,-0.2874,-0.2874,0,-0.2381,-0.2475,-0.2521,-0.2552,-0.2658,-0.2693,-0.2744,-0.2825,-0.2866,-0.2929,-0.2952,-0.2999,-0.3003,-0.3005,-0.2975,-0.2974,-0.2967,-0.2963,-0.2867,-0.286,-0.274,-0.2719,-0.273,-0.2975,-0.2975,-0.2975,-0.2975,0,-0.237,-0.2403,-0.2498,-0.2521,-0.2574,-0.2658,-0.2714,-0.2774,-0.2855,-0.2893,-0.2957,-0.2985,-0.3012,-0.3012,-0.2987,-0.2926,-0.2978,-0.2876,-0.2853,-0.276,-0.2743,-0.2703,-0.2716,-0.2974,-0.2974,-0.2974,-0.2975,0,-0.23,-0.2369,-0.2418,-0.252,-0.2549,-0.2576,-0.2679,-0.2717,-0.2807,-0.2856,-0.2873,-0.2965,-0.2964,-0.2972,-0.2961,-0.2922,-0.2827,-0.2848,-0.2717,-0.2681,-0.2569,-0.259,-0.254,-0.2469,-0.2739,-0.2737,-0.2735,0,-0.2269,-0.2287,-0.2379,-0.2398,-0.2438,-0.2498,-0.2538,-0.266,-0.2703,-0.2833,-0.2843,-0.289,-0.289,-0.2852,-0.2806,-0.2744,-0.2737,-0.2596,-0.2587,-0.2549,-0.2558,-0.2562,-0.2507,-0.2453,-0.2449,-0.2446,-0.2443,0,-0.219,-0.2219,-0.2253,-0.2294,-0.2333,-0.2386,-0.2454,-0.2492,-0.2627,-0.2676,-0.2734,-0.275,-0.2752,-0.2659,-0.2596,-0.2544,-0.2523,-0.2525,-0.2533,-0.2373,-0.2333,-0.2256,-0.2477,-0.2414,-0.2417,-0.2419,-0.2421,-0.2422,-0.2105,-0.2104,-0.2142,-0.2167,-0.2211,-0.2242,-0.2241,-0.2331,-0.2378,-0.2432,-0.2544,-0.2538,-0.252,-0.2427,-0.238,-0.2266,-0.2321,-0.2197,-0.2234,-0.225,-0.2159,-0.2298,-0.2186,-0.2188,-0.2189,-0.219,-0.2191,0,-0.1989,-0.1997,-0.2014,-0.2039,-0.2025,-0.2098,-0.2153,-0.2128,-0.2125,-0.2224,-0.2244,-0.2268,-0.2173,-0.2179,-0.2098,-0.2009,-0.1963,-0.1961,-0.196,-0.1923,-0.2077,-0.2042,-0.1836,-0.1836,-0.1836,-0.1836,-0.1836,-0.1836,-0.1928,-0.1893,-0.1903,-0.1837,-0.1849,-0.1788,-0.1785,-0.1772,-0.181,-0.1823,-0.1888,-0.199,-0.2015,-0.211,-0.1993,-0.1894,-0.1852,-0.1781,-0.1818,-0.1959,-0.1985,-0.201,-0.1981,-0.1766,-0.1766,-0.1584,-0.1583,-0.1583]},{"header":{"parameterUnit":"m.s-1","parameterCategory":2,"la1":30.2991,"la2":30.254,"lo1":-89.0895,"lo2":-89.0444,"dy":0.0017,"dx":0.0017,"nx":28,"ny":28,"refTime":"2025-08-08T03:00:00:Z","depth":"0","parameterNumber":3,"parameterNumberName":"V-component_of_CURRENTS"},"data":[0,0,0,0,0,0,0,0,0,0,0,0,0,0,0,0,0,0,0,0,0,0,0,0,0,0,0,0,0,0,0,0,0,0,0,0,0,0,0,0,0,0,0,0,0,0,0,0,0,0,0,0,0,0,0,0,0,0,-0.0264,-0.0263,0,-0.0178,-0.0177,-0.0176,-0.0112,-0.0111,-0.0111,-0.011,0.0002,0.0005,0.0007,0,0,0,0,0,0,0,0,0,0,0,0,0,-0.0325,-0.0324,-0.0264,-0.0263,-0.0262,-0.0178,-0.0177,-0.0175,-0.0112,-0.0111,-0.0111,-0.011,0.0002,0.0005,0.0008,0,0,0,0,0,0,0,0,0,0,0,0,0,-0.0274,-0.0324,-0.0264,-0.0221,-0.0216,-0.0178,-0.0177,-0.0175,-0.0112,-0.0111,-0.011,-0.011,0.0001,0.0004,0.0008,0.0018,0,0,0.002,0.0022,0,0,0,0,0,0,0,0,-0.0277,-0.0271,-0.0228,-0.0224,-0.0218,-0.0156,-0.0157,-0.0109,-0.0112,-0.015,-0.011,-0.0109,-0.0049,-0.0041,-0.0025,0.0023,0.0028,0.002,0.0023,0.0024,0.0025,0,0,0,0,0,0,0,-0.028,-0.0274,-0.0228,-0.0227,-0.0221,-0.0189,-0.0182,-0.0147,-0.0103,-0.0147,-0.0142,-0.0135,-0.0046,-0.0029,-0.0022,0.003,0.002,0.0024,0.0026,0.0027,0.0106,0.0106,0,0,0,0,0,0,-0.0297,-0.0278,-0.0231,-0.0226,-0.0248,-0.0189,-0.018,-0.0176,-0.0104,-0.0093,-0.0135,-0.0132,-0.0036,-0.0027,-0.0018,-0.0001,0.0024,0.0028,0.003,0.0107,0.0106,0.0106,0,0,0,0,0,0,-0.0298,-0.0293,-0.0235,-0.0251,-0.0241,-0.0189,-0.0184,-0.0174,-0.0157,-0.0096,-0.0084,-0.0128,-0.0035,-0.0023,0.0011,0.0004,0.003,0.0033,0.0107,0.0107,0.0106,0.0032,0,0,0,0,0,0,-0.03,-0.0295,-0.0299,-0.0252,-0.0241,-0.0222,-0.0185,-0.0173,-0.0154,-0.0148,-0.0086,-0.0074,-0.0034,0.0005,0.0015,0.001,0.0036,0.0107,0.0107,0.0106,0.0035,0.003,0.0025,0,0,0,0,0,-0.0303,-0.0315,-0.03,-0.0294,-0.0248,-0.0222,-0.0214,-0.0173,-0.0154,-0.0153,-0.0108,-0.0076,0.0009,0.0007,0.0019,0.0015,0.0107,0.0107,0.0106,0.0037,0.0031,0.0025,0,0,0,0,0,0,-0.0345,-0.0309,-0.0291,-0.0291,-0.0263,-0.0212,-0.0209,-0.018,-0.0144,-0.0138,-0.0079,-0.0065,-0.0038,-0.0002,-0.0005,0.0037,0.0063,0.0065,0.0007,0.0001,-0.0004,-0.0017,0.0039,0,0,0,0,0,-0.0357,-0.0357,-0.0315,-0.0317,-0.0306,-0.0259,-0.0244,-0.0217,-0.0178,-0.016,-0.0116,-0.0069,-0.0032,-0.0008,0.0028,0.0052,0.0098,0.0057,0.0052,0.0047,0.0045,0.0107,0.0107,0.0105,0.0105,0.0105,0,0,-0.0374,-0.0355,-0.0354,-0.0326,-0.03,-0.0296,-0.0248,-0.0232,-0.0225,-0.0155,-0.0134,-0.0088,-0.003,-0.0005,0.0011,0.0026,0.0072,0.0047,0.0042,0.0043,0.0107,0.0107,0.0107,0.0104,0.0104,0.0104,0,0,-0.0414,-0.0391,-0.0406,-0.0388,-0.0358,-0.0327,-0.0327,-0.0281,-0.0256,-0.0231,-0.0178,-0.0136,-0.0082,-0.0037,-0.0009,-0.0019,0.004,-0.001,-0.0042,0.0018,0.0019,0.002,0.0076,0.0083,-0.0009,-0.0009,-0.0009,0,-0.0437,-0.0447,-0.0406,-0.0416,-0.0408,-0.0348,-0.0361,-0.0329,-0.0277,-0.0255,-0.0236,-0.0142,-0.0097,-0.0051,-0.0055,-0.0031,0.0012,-0.0026,0.0011,0.0013,0.0016,0.0073,0.0082,-0.0013,-0.0012,-0.0012,-0.0011,0,-0.0486,-0.0493,-0.0501,-0.0492,-0.0478,-0.0479,-0.0432,-0.0411,-0.0373,-0.0331,-0.0279,-0.021,-0.0151,-0.0131,-0.0097,-0.0057,-0.003,-0.0007,0.0023,0.0011,0.0073,0.0083,-0.0018,-0.0017,-0.0015,-0.0015,0,0,-0.0536,-0.0537,-0.0539,-0.0551,-0.0519,-0.0513,-0.0499,-0.0463,-0.0446,-0.0386,-0.0353,-0.0284,-0.0233,-0.0197,-0.014,-0.0086,-0.0034,-0.0047,-0.0042,0.0003,0.0098,0.014,0.0156,-0.0005,-0.0004,-0.0002,0.0133,0,-0.0586,-0.063,-0.0608,-0.0641,-0.0658,-0.0603,-0.0594,-0.055,-0.0495,-0.0447,-0.0357,-0.0307,-0.026,-0.023,-0.017,-0.0064,-0.001,-0.0073,0.0109,0.0114,0.0148,0.0168,0.0193,0.0318,0.0143,0.0145,0.0146,0,-0.0639,-0.0662,-0.071,-0.0717,-0.0718,-0.0723,-0.0687,-0.0669,-0.058,-0.0534,-0.0458,-0.038,-0.0288,-0.0251,-0.0078,-0.012,-0.0025,0.0058,0.0066,0.0138,0.0175,0.0304,0.0344,0.0496,0.0163,0.0162,0.016,0,-0.07,-0.073,-0.0773,-0.0776,-0.0773,-0.0776,-0.0764,-0.0696,-0.0675,-0.0581,-0.0546,-0.0423,-0.0354,-0.0221,-0.0051,-0.0063,0.0145,0.0154,0.0283,0.0287,0.0362,0.037,0.0567,0.0268,0.0268,0.0268,0.0267,0,-0.0763,-0.0794,-0.0807,-0.0832,-0.0873,-0.0841,-0.0851,-0.0813,-0.0748,-0.0719,-0.0597,-0.0535,-0.0344,-0.0199,-0.0056,0.0155,0.0147,0.0286,0.0329,0.0337,0.0341,0.0519,0.0566,0.0273,0.0272,0.0271,0.027,0,-0.0822,-0.083,-0.0883,-0.09,-0.0907,-0.0934,-0.0924,-0.0921,-0.0849,-0.0804,-0.0777,-0.0607,-0.0409,-0.0207,0.0031,0.0153,0.0441,0.0416,0.041,0.045,0.0695,0.0734,0.0965,0.1041,0.0578,0.0579,0.0581,0,-0.0857,-0.0892,-0.0941,-0.0976,-0.0988,-0.1015,-0.103,-0.0981,-0.0966,-0.0842,-0.0821,-0.0622,-0.0464,-0.0091,0.0167,0.0442,0.0544,0.061,0.0589,0.0726,0.0802,0.0831,0.0879,0.0663,0.0665,0.0667,0.0669,0,-0.092,-0.0935,-0.0976,-0.1054,-0.1091,-0.1126,-0.1136,-0.1142,-0.1066,-0.1,-0.0868,-0.0727,-0.0356,-0.0018,0.0338,0.05,0.0716,0.0654,0.0809,0.0899,0.0932,0.1018,0.0551,0.0684,0.0683,0.0682,0.0681,0.068,-0.0955,-0.1002,-0.1058,-0.1126,-0.1174,-0.1218,-0.1238,-0.1218,-0.1181,-0.106,-0.0917,-0.0673,-0.019,0.0331,0.0521,0.0917,0.0871,0.1025,0.1066,0.1087,0.115,0.0711,0.0879,0.0879,0.0878,0.0878,0.0878,0,-0.0994,-0.1048,-0.1124,-0.1201,-0.1261,-0.1267,-0.1291,-0.1275,-0.1223,-0.1072,-0.0908,-0.0383,0.0102,0.0545,0.1107,0.1317,0.1351,0.1419,0.1473,0.1504,0.1144,0.1137,0.1353,0.1352,0.1352,0.1352,0.1352,0.1352,-0.1016,-0.1095,-0.1139,-0.1249,-0.1301,-0.1347,-0.1356,-0.1307,-0.1202,-0.0931,-0.0641,-0.0409,0.0238,0.115,0.1672,0.1716,0.187,0.1859,0.1944,0.17,0.1666,0.1634,0.1642,0.196,0.196,0.2292,0.2295,0.2298]}],[{"header":{"parameterUnit":"m.s-1","parameterCategory":2,"la1":30.2991,"la2":30.254,"lo1":-89.0895,"lo2":-89.0444,"dy":0.0017,"dx":0.0017,"nx":28,"ny":28,"refTime":"2025-08-08T03:00:00:Z","depth":"2","parameterNumber":2,"parameterNumberName":"U-component_of_CURRENTS"},"data":[0,0,0,0,0,0,0,0,0,0,0,0,0,0,0,0,0,0,0,0,0,0,0,0,0,0,0,0,0,0,0,0,0,0,0,0,0,0,0,0,0,0,0,0,0,0,0,0,0,0,0,0,0,0,0,0,0,0,-0.2243,-0.2243,0,-0.2264,-0.2264,-0.2264,-0.2244,-0.2244,-0.2243,-0.2243,-0.2214,-0.2214,-0.2213,0,0,0,0,0,0,0,0,0,0,0,0,0,-0.2176,-0.2178,-0.2243,-0.2243,-0.2244,-0.2264,-0.2264,-0.2264,-0.2244,-0.2244,-0.2243,-0.2242,-0.2214,-0.2214,-0.2213,0,0,0,0,0,0,0,0,0,0,0,0,0,-0.22,-0.2178,-0.2243,-0.2238,-0.2238,-0.2264,-0.2264,-0.2264,-0.2244,-0.2244,-0.2243,-0.2242,-0.2214,-0.2214,-0.2213,-0.2228,0,0,-0.2212,-0.2212,0,0,0,0,0,0,0,0,-0.2199,-0.2202,-0.2238,-0.2239,-0.2239,-0.2253,-0.2231,-0.2251,-0.2245,-0.2239,-0.2243,-0.2242,-0.2225,-0.2223,-0.2226,-0.2227,-0.2226,-0.2212,-0.2212,-0.2212,-0.2212,0,0,0,0,0,0,0,-0.2197,-0.2201,-0.2249,-0.2239,-0.2239,-0.2233,-0.2235,-0.2234,-0.2234,-0.224,-0.2239,-0.2246,-0.2224,-0.2227,-0.2225,-0.2225,-0.2212,-0.2212,-0.2212,-0.2212,-0.2252,-0.2253,0,0,0,0,0,0,-0.2201,-0.22,-0.2248,-0.225,-0.2219,-0.2235,-0.2237,-0.2247,-0.2235,-0.2233,-0.2247,-0.2245,-0.2228,-0.2226,-0.2224,-0.2263,-0.2212,-0.2212,-0.2211,-0.2251,-0.2252,-0.2254,0,0,0,0,0,0,-0.22,-0.2206,-0.2247,-0.2227,-0.2232,-0.2237,-0.2248,-0.2248,-0.2252,-0.2241,-0.2237,-0.2251,-0.2227,-0.2225,-0.2231,-0.226,-0.2211,-0.2211,-0.2249,-0.2251,-0.2253,-0.2325,0,0,0,0,0,0,-0.2198,-0.2205,-0.2212,-0.2227,-0.2233,-0.227,-0.225,-0.2249,-0.2259,-0.2257,-0.2244,-0.224,-0.2226,-0.2232,-0.2231,-0.2259,-0.2211,-0.2248,-0.225,-0.2252,-0.2321,-0.2329,-0.2336,0,0,0,0,0,-0.2196,-0.221,-0.2212,-0.2218,-0.2243,-0.2271,-0.2273,-0.2272,-0.226,-0.227,-0.2261,-0.2241,-0.2247,-0.2233,-0.2231,-0.226,-0.2246,-0.2249,-0.2252,-0.2318,-0.2328,-0.2336,0,0,0,0,0,0,-0.2183,-0.221,-0.2212,-0.2233,-0.2254,-0.2268,-0.2276,-0.2277,-0.2279,-0.2273,-0.2255,-0.2252,-0.227,-0.2255,-0.224,-0.2279,-0.2244,-0.2247,-0.2295,-0.2304,-0.2311,-0.2311,-0.2211,0,0,0,0,0,-0.2186,-0.2201,-0.2228,-0.2244,-0.2256,-0.2267,-0.2276,-0.228,-0.2286,-0.2286,-0.2279,-0.2274,-0.2283,-0.2284,-0.2283,-0.2303,-0.2286,-0.2321,-0.2329,-0.2335,-0.2335,-0.2346,-0.2354,-0.2263,-0.2263,-0.2263,0,0,-0.2184,-0.2201,-0.2208,-0.2242,-0.2253,-0.2283,-0.2269,-0.229,-0.2315,-0.2283,-0.2304,-0.2299,-0.2293,-0.2318,-0.2325,-0.2307,-0.2352,-0.2339,-0.2345,-0.234,-0.235,-0.2358,-0.2366,-0.2265,-0.2265,-0.2265,0,0,-0.2191,-0.2205,-0.2223,-0.2248,-0.2277,-0.2292,-0.2301,-0.2324,-0.2332,-0.2358,-0.2344,-0.2359,-0.2362,-0.2373,-0.2376,-0.2426,-0.2391,-0.2424,-0.2463,-0.2475,-0.2482,-0.2488,-0.2475,-0.2479,-0.2428,-0.2429,-0.2429,0,-0.2186,-0.2216,-0.2232,-0.2262,-0.2285,-0.2299,-0.2331,-0.2351,-0.2372,-0.2386,-0.2371,-0.2399,-0.2394,-0.2434,-0.245,-0.2445,-0.243,-0.243,-0.2485,-0.2491,-0.2496,-0.248,-0.2484,-0.2432,-0.2432,-0.2432,-0.2431,0,-0.2211,-0.224,-0.2254,-0.2298,-0.2326,-0.2355,-0.2392,-0.2417,-0.2427,-0.2444,-0.248,-0.2481,-0.2494,-0.2504,-0.249,-0.2533,-0.2503,-0.2493,-0.2461,-0.2509,-0.249,-0.2493,-0.2438,-0.2436,-0.2435,-0.2434,0,0,-0.2182,-0.2257,-0.2261,-0.2289,-0.2349,-0.2371,-0.2425,-0.2474,-0.2503,-0.2528,-0.2561,-0.259,-0.2583,-0.2586,-0.258,-0.2592,-0.2619,-0.2558,-0.2557,-0.2543,-0.2622,-0.2543,-0.2538,-0.2615,-0.2616,-0.2617,-0.2592,0,-0.2194,-0.2251,-0.2292,-0.2348,-0.238,-0.2426,-0.2475,-0.2521,-0.255,-0.2585,-0.2606,-0.2629,-0.2618,-0.2621,-0.2639,-0.2619,-0.263,-0.2625,-0.2578,-0.2576,-0.25,-0.2541,-0.2346,-0.2303,-0.2595,-0.2595,-0.2596,0,-0.2199,-0.2239,-0.2296,-0.2375,-0.2393,-0.2432,-0.2503,-0.2548,-0.261,-0.2632,-0.2668,-0.2674,-0.2705,-0.2681,-0.2689,-0.2682,-0.2659,-0.2643,-0.2642,-0.2543,-0.2503,-0.2303,-0.2297,-0.26,-0.26,-0.2599,-0.2599,0,-0.2156,-0.224,-0.2282,-0.231,-0.2402,-0.2436,-0.2481,-0.2554,-0.259,-0.2651,-0.2674,-0.2715,-0.2721,-0.2719,-0.2691,-0.2689,-0.2681,-0.2674,-0.2585,-0.2578,-0.2389,-0.2364,-0.2682,-0.2682,-0.2682,-0.2682,-0.2682,0,-0.2148,-0.2178,-0.2264,-0.2285,-0.2332,-0.2408,-0.246,-0.2513,-0.2587,-0.2619,-0.2682,-0.2704,-0.273,-0.2729,-0.2704,-0.2645,-0.2692,-0.2593,-0.2572,-0.2408,-0.2386,-0.2624,-0.2618,-0.2681,-0.2681,-0.2681,-0.2682,0,-0.2086,-0.215,-0.2194,-0.2286,-0.2311,-0.2337,-0.243,-0.2462,-0.2548,-0.259,-0.2608,-0.2689,-0.2687,-0.2697,-0.2684,-0.2644,-0.2606,-0.2573,-0.2367,-0.2323,-0.2492,-0.249,-0.2475,-0.2472,-0.247,-0.2468,-0.2466,0,-0.206,-0.2077,-0.2161,-0.2177,-0.2214,-0.2269,-0.2303,-0.2414,-0.2449,-0.2566,-0.2571,-0.2618,-0.2608,-0.2574,-0.2523,-0.2465,-0.2537,-0.2249,-0.222,-0.2492,-0.2474,-0.2475,-0.2476,-0.1994,-0.1989,-0.1985,-0.1981,0,-0.199,-0.2018,-0.2049,-0.2083,-0.2117,-0.2161,-0.222,-0.2247,-0.2368,-0.2408,-0.2451,-0.2461,-0.2459,-0.2321,-0.2268,-0.2208,-0.2245,-0.2157,-0.2491,-0.2084,-0.2038,-0.2021,-0.2038,-0.1941,-0.1945,-0.1948,-0.195,-0.1952,-0.1915,-0.1912,-0.1946,-0.1965,-0.2002,-0.2021,-0.2011,-0.2084,-0.2115,-0.2145,-0.2251,-0.2202,-0.2197,-0.2024,-0.1932,-0.1869,-0.2023,-0.1918,-0.1932,-0.195,-0.1906,-0.1859,-0.1719,-0.1722,-0.1724,-0.1726,-0.1728,0,-0.1807,-0.1812,-0.1824,-0.184,-0.182,-0.1889,-0.1922,-0.1883,-0.1859,-0.1922,-0.1926,-0.1741,-0.1663,-0.1675,-0.1529,-0.1501,-0.1485,-0.1424,-0.1401,-0.1441,-0.1476,-0.1408,-0.1089,-0.1087,-0.1086,-0.1084,0,0,-0.175,-0.1714,-0.1717,-0.1644,-0.1651,-0.1582,-0.1568,-0.153,-0.1534,-0.1467,-0.1447,-0.1574,-0.1621,-0.1356,-0.1293,-0.1173,-0.1292,-0.1109,-0.1619,-0.1631,-0.1664,-0.1755,-0.1695,0,0,0,0,0]},{"header":{"parameterUnit":"m.s-1","parameterCategory":2,"la1":30.2991,"la2":30.254,"lo1":-89.0895,"lo2":-89.0444,"dy":0.0017,"dx":0.0017,"nx":28,"ny":28,"refTime":"2025-08-08T03:00:00:Z","depth":"2","parameterNumber":3,"parameterNumberName":"V-component_of_CURRENTS"},"data":[0,0,0,0,0,0,0,0,0,0,0,0,0,0,0,0,0,0,0,0,0,0,0,0,0,0,0,0,0,0,0,0,0,0,0,0,0,0,0,0,0,0,0,0,0,0,0,0,0,0,0,0,0,0,0,0,0,0,-0.0173,-0.0172,0,-0.0088,-0.0087,-0.0086,-0.0031,-0.0031,-0.003,-0.003,0.0077,0.008,0.0083,0,0,0,0,0,0,0,0,0,0,0,0,0,-0.0234,-0.0234,-0.0173,-0.0172,-0.0171,-0.0089,-0.0087,-0.0086,-0.0031,-0.003,-0.003,-0.003,0.0077,0.008,0.0083,0,0,0,0,0,0,0,0,0,0,0,0,0,-0.0184,-0.0234,-0.0173,-0.0134,-0.013,-0.0089,-0.0087,-0.0086,-0.0031,-0.003,-0.003,-0.003,0.0075,0.0079,0.0083,0.01,0,0,0.0095,0.0097,0,0,0,0,0,0,0,0,-0.0187,-0.0181,-0.0141,-0.0137,-0.0132,-0.0071,-0.007,-0.0023,-0.0031,-0.0067,-0.003,-0.003,0.0029,0.0037,0.0053,0.0105,0.0109,0.0096,0.0098,0.01,0.0101,0,0,0,0,0,0,0,-0.019,-0.0184,-0.0138,-0.014,-0.0135,-0.0104,-0.0096,-0.006,-0.0021,-0.0064,-0.006,-0.0053,0.0032,0.0049,0.0056,0.0111,0.0095,0.0099,0.0101,0.0103,0.0191,0.0191,0,0,0,0,0,0,-0.0206,-0.0188,-0.0141,-0.0136,-0.016,-0.0103,-0.0095,-0.009,-0.0022,-0.0012,-0.0053,-0.0051,0.0042,0.0051,0.006,0.0082,0.01,0.0103,0.0106,0.0191,0.0191,0.0191,0,0,0,0,0,0,-0.0208,-0.0203,-0.0144,-0.0161,-0.0151,-0.0103,-0.0097,-0.0088,-0.0072,-0.0014,-0.0003,-0.0047,0.0043,0.0055,0.0091,0.0087,0.0105,0.0109,0.0191,0.0191,0.0191,0.0128,0,0,0,0,0,0,-0.021,-0.0204,-0.0208,-0.0162,-0.0151,-0.0128,-0.0098,-0.0087,-0.0069,-0.0064,-0.0005,0.0006,0.0044,0.0084,0.0094,0.0093,0.0112,0.0191,0.0191,0.0191,0.013,0.0126,0.0122,0,0,0,0,0,-0.0213,-0.0222,-0.0209,-0.0203,-0.0157,-0.0128,-0.012,-0.0083,-0.0069,-0.0066,-0.0023,0.0004,0.0092,0.0087,0.0099,0.0099,0.0191,0.0191,0.0191,0.0132,0.0126,0.0122,0,0,0,0,0,0,-0.0251,-0.0216,-0.0201,-0.0199,-0.017,-0.012,-0.0115,-0.009,-0.0053,-0.005,0.0005,0.0019,0.0048,0.0082,0.0077,0.0125,0.0145,0.0148,0.0096,0.0092,0.0088,0.0072,0.0115,0,0,0,0,0,-0.0262,-0.026,-0.022,-0.0219,-0.0208,-0.0163,-0.0148,-0.0123,-0.0085,-0.0069,-0.0026,0.0019,0.0057,0.008,0.0117,0.0145,0.0183,0.0152,0.0148,0.0145,0.014,0.0196,0.0196,0.0191,0.0191,0.0191,0,0,-0.0277,-0.0258,-0.0257,-0.0227,-0.0202,-0.0194,-0.0153,-0.0136,-0.0126,-0.0063,-0.0039,0.0004,0.006,0.009,0.0106,0.0119,0.0166,0.0145,0.0141,0.0139,0.0196,0.0196,0.0197,0.0191,0.0191,0.0191,0,0,-0.031,-0.029,-0.0301,-0.0281,-0.0251,-0.0221,-0.0221,-0.0175,-0.0152,-0.0123,-0.0076,-0.0034,0.0021,0.0065,0.0094,0.0091,0.014,0.0101,0.0073,0.0126,0.0127,0.0128,0.0175,0.0181,0.0103,0.0102,0.0102,0,-0.0331,-0.0337,-0.0299,-0.0304,-0.0295,-0.024,-0.0248,-0.0215,-0.0163,-0.0144,-0.0126,-0.0035,0.0011,0.0058,0.0057,0.0082,0.0117,0.0084,0.0121,0.0123,0.0125,0.0173,0.018,0.0099,0.01,0.01,0.01,0,-0.0369,-0.0374,-0.0379,-0.0366,-0.035,-0.0349,-0.0302,-0.028,-0.0246,-0.0206,-0.0157,-0.0088,-0.0033,-0.0011,0.0023,0.0062,0.0083,0.0104,0.0129,0.0121,0.0173,0.0181,0.0095,0.0096,0.0097,0.0098,0,0,-0.0414,-0.0409,-0.041,-0.0421,-0.0385,-0.0379,-0.036,-0.0324,-0.0311,-0.025,-0.0222,-0.0148,-0.0105,-0.007,-0.0015,0.0035,0.0082,0.007,0.0074,0.0109,0.0196,0.0227,0.024,0.0109,0.011,0.0111,0.0224,0,-0.0457,-0.0491,-0.0467,-0.0493,-0.0506,-0.0455,-0.0443,-0.0401,-0.035,-0.0308,-0.0221,-0.0176,-0.0128,-0.0101,-0.0044,0.0052,0.0102,0.0049,0.0205,0.0209,0.0232,0.025,0.0213,0.0312,0.0233,0.0234,0.0236,0,-0.0501,-0.0519,-0.0558,-0.0564,-0.0564,-0.0566,-0.0536,-0.0516,-0.0435,-0.0394,-0.0323,-0.0252,-0.0164,-0.0126,0.0032,-0.0005,0.0083,0.016,0.0166,0.0223,0.0256,0.0309,0.0332,0.0251,0.0249,0.0248,0.0247,0,-0.0561,-0.0582,-0.0619,-0.0621,-0.0614,-0.0619,-0.0607,-0.0546,-0.0528,-0.0443,-0.0416,-0.0299,-0.0236,-0.0112,0.0047,0.0039,0.0224,0.0237,0.0349,0.0352,0.0366,0.0368,0.0342,0.0342,0.0342,0.0341,0.0341,0,-0.0617,-0.0646,-0.0655,-0.0677,-0.0718,-0.0684,-0.0699,-0.0664,-0.0606,-0.0584,-0.0468,-0.0416,-0.023,-0.0099,0.0036,0.0225,0.0219,0.035,0.0387,0.0343,0.0342,0.0323,0.032,0.0346,0.0345,0.0344,0.0343,0,-0.0676,-0.068,-0.0728,-0.0742,-0.075,-0.0779,-0.0773,-0.0774,-0.071,-0.0675,-0.0651,-0.0495,-0.0316,-0.0123,0.0097,0.0213,0.0387,0.0452,0.0385,0.0413,0.048,0.0471,0.0586,0.0589,0.059,0.0592,0.0593,0,-0.071,-0.0741,-0.0787,-0.0821,-0.0833,-0.0863,-0.088,-0.0835,-0.0825,-0.072,-0.0704,-0.0526,-0.0383,-0.0044,0.0194,0.0447,0.0446,0.0548,0.053,0.0481,0.0507,0.0496,0.0485,0.0524,0.0525,0.0525,0.0526,0,-0.0771,-0.0786,-0.0824,-0.09,-0.0938,-0.0973,-0.0988,-0.0996,-0.0929,-0.0874,-0.0763,-0.0639,-0.0307,-0.0024,0.0303,0.0443,0.0505,0.0566,0.0549,0.0463,0.0431,0.0453,0.0443,0.053,0.053,0.0529,0.0529,0.0529,-0.0809,-0.0854,-0.0907,-0.0974,-0.1023,-0.1066,-0.1088,-0.1072,-0.1044,-0.094,-0.0818,-0.0606,-0.0329,0.0141,0.037,0.0581,0.0583,0.0629,0.0624,0.062,0.0588,0.056,0.0677,0.0677,0.0677,0.0678,0.0678,0,-0.0852,-0.0902,-0.0975,-0.1049,-0.1109,-0.1117,-0.1143,-0.1127,-0.1085,-0.0956,-0.0815,-0.0505,-0.0179,0.0109,0.045,0.0652,0.0629,0.0676,0.0603,0.0598,0.0594,0.0557,0.0641,0.0641,0.0642,0.0642,0,0,-0.0875,-0.095,-0.099,-0.1099,-0.1151,-0.1199,-0.121,-0.116,-0.1066,-0.0923,-0.076,-0.0532,-0.0176,0.0053,0.031,0.0486,0.0485,0.0498,0.0507,0.0386,0.038,0.055,0.0487,0,0,0,0,0]}],[{"header":{"parameterUnit":"m.s-1","parameterCategory":2,"la1":30.2991,"la2":30.254,"lo1":-89.0895,"lo2":-89.0444,"dy":0.0017,"dx":0.0017,"nx":28,"ny":28,"refTime":"2025-08-08T03:00:00:Z","depth":"4","parameterNumber":2,"parameterNumberName":"U-component_of_CURRENTS"},"data":[0,0,0,0,0,0,0,0,0,0,0,0,0,0,0,0,0,0,0,0,0,0,0,0,0,0,0,0,0,0,0,0,0,0,0,0,0,0,0,0,0,0,0,0,0,0,0,0,0,0,0,0,0,0,0,0,0,0,-0.1575,-0.1575,0,-0.1632,-0.1633,-0.1633,-0.1665,-0.1665,-0.1666,-0.1666,-0.1706,-0.1707,-0.1708,0,0,0,0,0,0,0,0,0,0,0,0,0,-0.1486,-0.1487,-0.1574,-0.1575,-0.1576,-0.1632,-0.1633,-0.1634,-0.1665,-0.1665,-0.1666,-0.1666,-0.1706,-0.1707,-0.1708,0,0,0,0,0,0,0,0,0,0,0,0,0,-0.153,-0.1488,-0.1574,-0.16,-0.1603,-0.1632,-0.1633,-0.1634,-0.1665,-0.1665,-0.1666,-0.1666,-0.1705,-0.1707,-0.1708,-0.1708,0,0,-0.1712,-0.1712,0,0,0,0,0,0,0,0,-0.1528,-0.1533,-0.1595,-0.1598,-0.1602,-0.1644,-0.1617,-0.1658,-0.1665,-0.164,-0.1666,-0.1666,-0.1684,-0.1687,-0.1695,-0.1709,-0.1711,-0.1712,-0.1712,-0.1713,-0.1713,0,0,0,0,0,0,0,-0.1524,-0.1531,-0.1595,-0.1596,-0.16,-0.1607,-0.1614,-0.1624,-0.1657,-0.1642,-0.1645,-0.1654,-0.1686,-0.1694,-0.1696,-0.1712,-0.1712,-0.1713,-0.1713,-0.1714,-0.1795,-0.1796,0,0,0,0,0,0,-0.1521,-0.1528,-0.1594,-0.1597,-0.1567,-0.1609,-0.1616,-0.1628,-0.1658,-0.1663,-0.1654,-0.1655,-0.1691,-0.1695,-0.1698,-0.1767,-0.1713,-0.1714,-0.1715,-0.1793,-0.1795,-0.1797,0,0,0,0,0,0,-0.1519,-0.1527,-0.1591,-0.1565,-0.1574,-0.161,-0.1624,-0.1629,-0.1665,-0.1667,-0.1672,-0.1686,-0.1692,-0.1696,-0.1734,-0.1766,-0.1715,-0.1716,-0.1792,-0.1794,-0.1796,-0.1862,0,0,0,0,0,0,-0.1516,-0.1526,-0.1547,-0.1565,-0.1576,-0.1629,-0.1624,-0.163,-0.1669,-0.1672,-0.1696,-0.1699,-0.1692,-0.1733,-0.1735,-0.1767,-0.1717,-0.179,-0.1793,-0.1795,-0.1858,-0.1866,-0.1873,0,0,0,0,0,-0.1513,-0.1536,-0.1547,-0.1556,-0.1599,-0.163,-0.1637,-0.1661,-0.1671,-0.1693,-0.1711,-0.17,-0.1751,-0.1735,-0.1738,-0.177,-0.1789,-0.1792,-0.1795,-0.1855,-0.1865,-0.1873,0,0,0,0,0,0,-0.151,-0.1542,-0.1555,-0.1588,-0.1617,-0.1637,-0.1664,-0.1679,-0.1711,-0.1721,-0.1719,-0.1724,-0.1768,-0.1761,-0.1743,-0.1801,-0.1767,-0.1771,-0.1812,-0.1821,-0.1829,-0.1823,-0.1718,0,0,0,0,0,-0.1518,-0.1546,-0.1574,-0.1604,-0.1622,-0.1648,-0.1669,-0.1688,-0.1712,-0.1728,-0.1745,-0.1762,-0.1778,-0.1794,-0.1806,-0.1841,-0.1823,-0.1863,-0.187,-0.1877,-0.1875,-0.1879,-0.1887,-0.1807,-0.1807,-0.1807,0,0,-0.1526,-0.1548,-0.1565,-0.1606,-0.1631,-0.1664,-0.1663,-0.1705,-0.1738,-0.1726,-0.1783,-0.1791,-0.1793,-0.1832,-0.1851,-0.1834,-0.1892,-0.1881,-0.1886,-0.188,-0.1883,-0.1891,-0.1897,-0.1809,-0.1809,-0.1808,0,0,-0.1546,-0.1576,-0.1604,-0.1633,-0.1678,-0.1695,-0.1714,-0.1753,-0.1779,-0.1828,-0.1826,-0.1857,-0.1888,-0.1896,-0.1901,-0.1957,-0.193,-0.1965,-0.2002,-0.2007,-0.2013,-0.2019,-0.201,-0.2014,-0.197,-0.197,-0.197,0,-0.1556,-0.1593,-0.1618,-0.1652,-0.1681,-0.1712,-0.1749,-0.178,-0.1829,-0.1851,-0.1857,-0.191,-0.1916,-0.1953,-0.1973,-0.1975,-0.1966,-0.1968,-0.2016,-0.2021,-0.2025,-0.2015,-0.2019,-0.1974,-0.1973,-0.1973,-0.1973,0,-0.1587,-0.163,-0.1651,-0.1702,-0.1737,-0.1777,-0.1818,-0.1862,-0.1896,-0.192,-0.1976,-0.1989,-0.2015,-0.2028,-0.2019,-0.2057,-0.2037,-0.2024,-0.1991,-0.2037,-0.2024,-0.2026,-0.1979,-0.1978,-0.1977,-0.1976,0,0,-0.157,-0.1656,-0.1666,-0.17,-0.1769,-0.1796,-0.186,-0.1915,-0.1954,-0.2005,-0.2048,-0.2087,-0.2093,-0.2099,-0.2098,-0.2107,-0.2133,-0.2082,-0.2081,-0.207,-0.2137,-0.1997,-0.1986,-0.2129,-0.2129,-0.213,-0.2116,0,-0.1588,-0.1655,-0.1697,-0.1766,-0.1802,-0.1857,-0.1909,-0.1965,-0.201,-0.2059,-0.2087,-0.2126,-0.2121,-0.2137,-0.2149,-0.2133,-0.2142,-0.2137,-0.2096,-0.2095,-0.1962,-0.1985,-0.2133,-0.2118,-0.2119,-0.2119,-0.2119,0,-0.1596,-0.1641,-0.1712,-0.1796,-0.1818,-0.1867,-0.1949,-0.2,-0.2072,-0.2107,-0.2153,-0.217,-0.2202,-0.2186,-0.2193,-0.219,-0.217,-0.2156,-0.2155,-0.1999,-0.1959,-0.2062,-0.2123,-0.2123,-0.2122,-0.2122,-0.2122,0,-0.1551,-0.1647,-0.1704,-0.1735,-0.1835,-0.1882,-0.1936,-0.2016,-0.2055,-0.2134,-0.2163,-0.2208,-0.2227,-0.2223,-0.2199,-0.22,-0.2187,-0.2182,-0.2041,-0.2031,-0.2132,-0.2126,-0.2183,-0.2183,-0.2183,-0.2183,-0.2183,0,-0.1533,-0.1581,-0.1693,-0.1722,-0.1785,-0.1866,-0.1934,-0.1994,-0.2073,-0.2102,-0.2179,-0.2191,-0.2236,-0.2233,-0.221,-0.212,-0.2197,-0.204,-0.2015,-0.2161,-0.2159,-0.2133,-0.2128,-0.2182,-0.2182,-0.2183,-0.2183,0,-0.1468,-0.1549,-0.1614,-0.173,-0.1766,-0.1809,-0.1918,-0.1952,-0.2047,-0.2085,-0.2109,-0.2183,-0.2172,-0.2193,-0.2178,-0.2111,-0.2055,-0.2007,-0.2157,-0.2142,-0.1896,-0.1895,-0.1846,-0.1841,-0.1836,-0.1833,-0.183,0,-0.1438,-0.1468,-0.1594,-0.1626,-0.1683,-0.1761,-0.1802,-0.1918,-0.1943,-0.2049,-0.2041,-0.2087,-0.2112,-0.1977,-0.2023,-0.197,-0.1948,-0.1912,-0.1907,-0.1879,-0.1861,-0.1866,-0.1871,-0.1823,-0.1822,-0.182,-0.1819,0,-0.1365,-0.1425,-0.1475,-0.154,-0.1597,-0.1647,-0.1715,-0.1721,-0.1832,-0.1941,-0.1909,-0.1899,-0.1886,-0.187,-0.1843,-0.1808,-0.1931,-0.1867,-0.1876,-0.1871,-0.1851,-0.1838,-0.1848,-0.1804,-0.1807,-0.1808,-0.1809,0,-0.1304,-0.1316,-0.1385,-0.1424,-0.149,-0.1497,-0.1558,-0.1576,-0.1618,-0.1739,-0.172,-0.1774,-0.1853,-0.1785,-0.1757,-0.1712,-0.169,-0.1634,-0.1655,-0.1672,-0.1621,-0.1571,-0.1408,0,0,0,0,0,-0.1229,-0.1225,-0.1256,-0.1292,-0.135,-0.1383,-0.1474,-0.1537,-0.1648,-0.1573,-0.1641,-0.1618,-0.1585,-0.1621,-0.1536,-0.1685,-0.1702,-0.1582,-0.165,-0.1721,-0.1739,-0.1696,0,0,0,0,0,0,-0.1178,-0.1205,-0.121,-0.1164,-0.1159,-0.1204,-0.1254,-0.1337,-0.1306,-0.1427,-0.1413,-0.151,-0.15,-0.1596,-0.1497,-0.1507,-0.1514,-0.1629,-0.1624,-0.1712,-0.1727,-0.1741,-0.1703,0,0,0,0,0]},{"header":{"parameterUnit":"m.s-1","parameterCategory":2,"la1":30.2991,"la2":30.254,"lo1":-89.0895,"lo2":-89.0444,"dy":0.0017,"dx":0.0017,"nx":28,"ny":28,"refTime":"2025-08-08T03:00:00:Z","depth":"4","parameterNumber":3,"parameterNumberName":"V-component_of_CURRENTS"},"data":[0,0,0,0,0,0,0,0,0,0,0,0,0,0,0,0,0,0,0,0,0,0,0,0,0,0,0,0,0,0,0,0,0,0,0,0,0,0,0,0,0,0,0,0,0,0,0,0,0,0,0,0,0,0,0,0,0,0,-0.0098,-0.0097,0,-0.0035,-0.0034,-0.0033,0.0003,0.0003,0.0003,0.0003,0.0091,0.0093,0.0096,0,0,0,0,0,0,0,0,0,0,0,0,0,-0.0142,-0.0142,-0.0098,-0.0097,-0.0097,-0.0035,-0.0034,-0.0033,0.0003,0.0003,0.0003,0.0003,0.009,0.0093,0.0096,0,0,0,0,0,0,0,0,0,0,0,0,0,-0.0104,-0.0142,-0.0098,-0.0072,-0.0069,-0.0035,-0.0034,-0.0033,0.0003,0.0003,0.0003,0.0003,0.009,0.0093,0.0096,0.0118,0,0,0.0107,0.0109,0,0,0,0,0,0,0,0,-0.0107,-0.0103,-0.0077,-0.0074,-0.0071,-0.0025,-0.0017,0.0019,0.0003,-0.0023,0.0003,0.0003,0.0054,0.006,0.0074,0.0122,0.0126,0.0107,0.011,0.0111,0.0112,0,0,0,0,0,0,0,-0.0109,-0.0105,-0.0072,-0.0076,-0.0072,-0.0048,-0.0043,-0.001,0.0016,-0.0021,-0.0019,-0.0013,0.0056,0.007,0.0076,0.0127,0.0107,0.011,0.0113,0.0114,0.0204,0.0204,0,0,0,0,0,0,-0.0122,-0.0108,-0.0074,-0.007,-0.009,-0.0048,-0.0042,-0.0039,0.0015,0.0023,-0.0014,-0.0012,0.0064,0.0072,0.0079,0.0106,0.0111,0.0114,0.0116,0.0204,0.0204,0.0204,0,0,0,0,0,0,-0.0123,-0.0119,-0.0076,-0.0088,-0.0081,-0.0047,-0.0044,-0.0037,-0.0025,0.002,0.0029,-0.0008,0.0064,0.0074,0.0109,0.011,0.0116,0.0119,0.0203,0.0204,0.0204,0.0161,0,0,0,0,0,0,-0.0125,-0.012,-0.0124,-0.0089,-0.0081,-0.0061,-0.0044,-0.0036,-0.0022,-0.002,0.0028,0.0036,0.0065,0.0103,0.0112,0.0115,0.0122,0.0203,0.0203,0.0204,0.0162,0.0159,0.0158,0,0,0,0,0,-0.0126,-0.0131,-0.0125,-0.0121,-0.0087,-0.0061,-0.0055,-0.003,-0.0022,-0.0018,0.0016,0.0034,0.0113,0.0106,0.0117,0.012,0.0203,0.0203,0.0204,0.0163,0.016,0.0158,0,0,0,0,0,0,-0.0151,-0.0127,-0.0119,-0.0117,-0.0094,-0.0056,-0.0052,-0.0034,-0.0004,-0.0003,0.004,0.0051,0.008,0.0108,0.01,0.0148,0.016,0.0163,0.0125,0.0123,0.0121,0.0103,0.0125,0,0,0,0,0,-0.016,-0.0159,-0.0129,-0.0128,-0.0119,-0.0087,-0.0075,-0.0057,-0.0026,-0.0014,0.0021,0.0058,0.0092,0.0112,0.0144,0.0174,0.0199,0.0183,0.0181,0.0179,0.0172,0.0214,0.0215,0.0206,0.0206,0.0206,0,0,-0.017,-0.0157,-0.0157,-0.0134,-0.0115,-0.0106,-0.0079,-0.0065,-0.0055,-0.0008,0.0015,0.005,0.0097,0.0127,0.0143,0.0151,0.0195,0.018,0.0177,0.0171,0.0215,0.0215,0.0216,0.0207,0.0207,0.0207,0,0,-0.0189,-0.0178,-0.0184,-0.0169,-0.0146,-0.0124,-0.0123,-0.0087,-0.0069,-0.0042,-0.0007,0.0029,0.008,0.0116,0.014,0.0148,0.0179,0.0157,0.0137,0.0178,0.0179,0.018,0.0209,0.0213,0.016,0.016,0.016,0,-0.0203,-0.0207,-0.0181,-0.0181,-0.0175,-0.0136,-0.014,-0.0112,-0.007,-0.0057,-0.0042,0.0034,0.0074,0.0116,0.0119,0.0143,0.0165,0.0141,0.0174,0.0176,0.0178,0.0208,0.0213,0.0158,0.0158,0.0159,0.0159,0,-0.0223,-0.0228,-0.023,-0.022,-0.0208,-0.0205,-0.0169,-0.0152,-0.0128,-0.0098,-0.0057,0.0003,0.0046,0.0069,0.0098,0.0132,0.0143,0.0162,0.0176,0.0175,0.0208,0.0214,0.0155,0.0156,0.0157,0.0157,0,0,-0.0251,-0.0247,-0.0249,-0.026,-0.0232,-0.0228,-0.0209,-0.0184,-0.0178,-0.0125,-0.0109,-0.0038,-0.0008,0.0022,0.0068,0.011,0.0146,0.0137,0.014,0.0157,0.0227,0.0213,0.0218,0.017,0.0171,0.0171,0.0243,0,-0.0277,-0.03,-0.0283,-0.0304,-0.0313,-0.0279,-0.027,-0.024,-0.0204,-0.0176,-0.0105,-0.0071,-0.0024,-0.0005,0.0045,0.012,0.016,0.0124,0.0232,0.0235,0.0216,0.0224,0.0174,0.0248,0.0249,0.025,0.0251,0,-0.0302,-0.0317,-0.0347,-0.036,-0.0361,-0.0365,-0.0354,-0.0338,-0.0281,-0.0252,-0.0198,-0.0143,-0.007,-0.0034,0.0093,0.0066,0.0137,0.0199,0.0203,0.0207,0.0232,0.0252,0.0262,0.0261,0.0261,0.026,0.0259,0,-0.0344,-0.0363,-0.0395,-0.0398,-0.0399,-0.0409,-0.0407,-0.0367,-0.0359,-0.03,-0.0286,-0.0191,-0.0144,-0.0041,0.0088,0.0089,0.0225,0.0244,0.0299,0.0299,0.0309,0.0308,0.0327,0.0327,0.0327,0.0327,0.0326,0,-0.0377,-0.0405,-0.0424,-0.0443,-0.0486,-0.0465,-0.049,-0.0468,-0.0434,-0.0425,-0.0334,-0.0301,-0.0144,-0.0044,0.007,0.02,0.0214,0.0292,0.0317,0.0289,0.0285,0.0313,0.0311,0.0329,0.0329,0.0328,0.0328,0,-0.0414,-0.0423,-0.0469,-0.0494,-0.0509,-0.054,-0.0557,-0.0566,-0.0527,-0.0511,-0.0496,-0.0379,-0.0245,-0.0088,0.0088,0.017,0.03,0.0343,0.0293,0.0314,0.035,0.0344,0.0404,0.0404,0.0404,0.0404,0.0404,0,-0.0432,-0.0458,-0.0518,-0.0555,-0.0573,-0.0613,-0.0638,-0.0617,-0.0617,-0.0556,-0.0548,-0.0423,-0.0328,-0.009,0.0071,0.0282,0.0314,0.0369,0.0367,0.0339,0.0358,0.0352,0.0347,0.0404,0.0404,0.0404,0.0404,0,-0.0467,-0.0492,-0.053,-0.061,-0.0657,-0.07,-0.0728,-0.0735,-0.0698,-0.067,-0.0578,-0.0445,-0.0293,-0.0097,0.0069,0.022,0.0326,0.0371,0.0372,0.037,0.0341,0.0358,0.0353,0.0405,0.0405,0.0405,0.0405,0,-0.0491,-0.0531,-0.0587,-0.0653,-0.0718,-0.0761,-0.0773,-0.0757,-0.0745,-0.0665,-0.0638,-0.0462,-0.0352,-0.0129,0.0021,0.0171,0.0207,0.0244,0.0252,0.0254,0.019,0.013,0.0148,0,0,0,0,0,-0.0509,-0.0554,-0.0624,-0.0692,-0.0757,-0.079,-0.0818,-0.0812,-0.0781,-0.0723,-0.0674,-0.0526,-0.0286,-0.018,-0.0032,0.0014,0.0222,0.0189,0.0265,0.0406,0.0406,0.0355,0,0,0,0,0,0,-0.0521,-0.0588,-0.0625,-0.0708,-0.0758,-0.0819,-0.0837,-0.0817,-0.077,-0.0719,-0.0586,-0.0508,-0.0268,-0.0367,-0.0033,0.0012,0.0075,0.0308,0.031,0.0407,0.0406,0.0406,0.0354,0,0,0,0,0]}]]